Location: Gradaro
(45.0833°N, 10.8833°E)
Time: 14:38:26
(UTC+00:00)

ADEOS - Pass Details

Date: 29 November 2020
Orbit: 792 x 795 km, 98.9° (Epoch: 24 January)

Event Time Altitude Azimuth Distance (km) Brightness Sun altitude
Rises 04:26:56 0° 10° (N) 3,309 6.8 -21.6°
Reaches altitude 10° 04:29:18 10° 6° (N) 2,374 6.0 -21.2°
Maximum altitude 04:34:25 55° 290° (WNW) 949 3.6 -20.3°
Drops below altitude 10° 04:39:29 10° 213° (SSW) 2,356 5.8 -19.4°
Sets 04:41:50 0° 209° (SSW) 3,281 6.6 -19.0°
